GW2652 Weather Reports


Display with metric or nautical units.
time (UTC)temp
F
wind
direction
speed
MPH
gust
MPH
rain 1hr
in
rain 24hr
in
rain mn
in
humidity
%
barometer
mb
20260906224905 62 93 0.0 0.0 0.00 0.00 0.00 87 1015.7
20260906224401 63 93 0.0 0.0 0.00 0.00 0.00 82 1015.7
20260906223857 64 93 0.0 0.0 0.00 0.00 0.00 83 1015.6
20260906223353 65 93 0.0 0.0 0.00 0.00 0.00 80 1015.9
20260906222851 67 93 0.0 0.0 0.00 0.00 0.00 77 1015.6
20260906222345 68 93 0.0 0.0 0.00 0.00 0.00 73 1015.6
20260906221843 70 70 0.0 0.0 0.00 0.00 0.00 68 1015.7
20260906221342 71 70 1.0 1.0 0.00 0.00 0.00 65 1015.6
20260906220837 71 63 1.0 2.0 0.00 0.00 0.00 66 1015.5
20260906220333 72 63 0.0 1.0 0.00 0.00 0.00 63 1015.4
20260906215832 72 63 1.0 2.0 0.00 0.00 0.00 60 1015.7
20260906215327 72 186 1.0 1.0 0.00 0.00 0.00 64 1015.5
20260906214824 72 184 1.0 1.0 0.00 0.00 0.00 62 1015.3
20260906214320 71 220 0.0 0.0 0.00 0.00 0.00 64 1015.4
20260906213818 71 213 2.0 2.0 0.00 0.00 0.00 62 1015.3
20260906213313 71 224 2.0 2.0 0.00 0.00 0.00 62 1015.5
20260906212810 70 223 2.0 2.0 0.00 0.00 0.00 63 1015.4
20260906212306 72 193 0.0 0.0 0.00 0.00 0.00 60 1015.4
20260906211805 73 74 2.0 2.0 0.00 0.00 0.00 56 1015.3
20260906211301 72 74 2.0 3.0 0.00 0.00 0.00 57 1015.4
20260906210756 71 74 0.0 0.0 0.00 0.00 0.00 62 1015.5
20260906210255 71 75 0.0 0.0 0.00 0.00 0.00 61 1015.3
20260906205750 72 113 3.0 4.0 0.00 0.00 0.00 58 1015.4
20260906205246 71 284 3.0 3.0 0.00 0.00 0.00 57 1015.2
20260906204742 73 252 3.0 3.0 0.00 0.00 0.00 58 1015.2
20260906204241 71 199 2.0 2.0 0.00 0.00 0.00 58 1015.4
20260906203740 71 137 1.0 2.0 0.00 0.00 0.00 65 1015.3
20260906203236 72 327 0.0 0.0 0.00 0.00 0.00 59 1015.2
20260906202732 75 186 0.0 1.0 0.00 0.00 0.00 56 1015.2
20260906202232 75 222 2.0 2.0 0.00 0.00 0.00 50 1015.1
20260906201727 76 126 2.0 2.0 0.00 0.00 0.00 52 1015.2
20260906201227 76 144 2.0 3.0 0.00 0.00 0.00 51 1015.2
20260906200722 73 211 2.0 2.0 0.00 0.00 0.00 55 1015.1
20260906200218 76 266 3.0 4.0 0.00 0.00 0.00 52 1015.1
20260906195714 76 87 1.0 3.0 0.00 0.00 0.00 51 1015.0
20260906195210 76 155 3.0 4.0 0.00 0.00 0.00 51 1014.9
20260906194705 76 145 2.0 3.0 0.00 0.00 0.00 50 1014.9
20260906194201 75 79 0.0 1.0 0.00 0.00 0.00 55 1015.0
20260906193655 76 75 5.0 6.0 0.00 0.00 0.00 50 1015.1
20260906193150 75 62 0.0 1.0 0.00 0.00 0.00 52 1015.1
20260906192646 75 67 2.0 3.0 0.00 0.00 0.00 53 1015.2
20260906192146 75 145 1.0 1.0 0.00 0.00 0.00 56 1014.9
20260906191640 76 51 0.0 1.0 0.00 0.00 0.00 55 1015.0
20260906191140 75 167 0.0 0.0 0.00 0.00 0.00 55 1015.2
20260906190634 75 178 1.0 1.0 0.00 0.00 0.00 56 1015.4
20260906190129 73 140 2.0 3.0 0.00 0.00 0.00 57 1015.1
20260906185627 74 150 3.0 4.0 0.00 0.00 0.00 56 1015.2
20260906185122 74 309 4.0 4.0 0.00 0.00 0.00 59 1015.1
20260906184616 73 157 1.0 1.0 0.00 0.00 0.00 58 1015.2
20260906184112 75 177 0.0 0.0 0.00 0.00 0.00 57 1015.4
20260906183608 76 135 2.0 3.0 0.00 0.00 0.00 52 1015.2
20260906183103 76 126 3.0 3.0 0.00 0.00 0.00 55 1015.1
20260906182558 73 196 1.0 1.0 0.00 0.00 0.00 59 1015.0
20260906182054 73 123 2.0 3.0 0.00 0.00 0.00 56 1015.3
20260906181549 74 302 4.0 6.0 0.00 0.00 0.00 59 1015.2
20260906181040 73 119 4.0 6.0 0.00 0.00 0.00 57 1015.2
20260906180539 74 318 1.0 2.0 0.00 0.00 0.00 59 1015.4
20260906180033 74 136 1.0 1.0 0.00 0.00 0.00 61 1015.2
20260906175532 74 149 2.0 3.0 0.00 0.00 0.00 56 1015.3
20260906175032 75 55 0.0 1.0 0.00 0.00 0.00 58 1015.4
20260906174530 74 142 2.0 3.0 0.00 0.00 0.00 58 1015.3
20260906174020 76 135 0.0 0.0 0.00 0.00 0.00 55 1015.4
20260906173515 73 144 2.0 2.0 0.00 0.00 0.00 64 1015.1
20260906173011 74 207 1.0 1.0 0.00 0.00 0.00 63 1015.4
20260906172505 74 99 2.0 3.0 0.00 0.00 0.00 55 1015.4
20260906172000 74 286 2.0 3.0 0.00 0.00 0.00 59 1015.4
20260906171455 74 186 1.0 1.0 0.00 0.00 0.00 56 1015.6
20260906170950 72 152 2.0 3.0 0.00 0.00 0.00 60 1015.4
20260906170447 72 184 1.0 1.0 0.00 0.00 0.00 63 1015.6
20260906165944 72 119 2.0 3.0 0.00 0.00 0.00 59 1015.6
20260906165442 72 169 1.0 1.0 0.00 0.00 0.00 70 1015.5
20260906164938 71 142 2.0 2.0 0.00 0.00 0.00 66 1015.6
20260906164436 71 187 0.0 1.0 0.00 0.00 0.00 65 1015.7
20260906163933 73 120 3.0 4.0 0.00 0.00 0.00 61 1015.4
20260906163428 73 192 0.0 1.0 0.00 0.00 0.00 63 1015.4
20260906162927 71 64 2.0 3.0 0.00 0.00 0.00 65 1015.6
20260906162425 73 161 4.0 6.0 0.00 0.00 0.00 63 1015.8
20260906161921 73 73 0.0 0.0 0.00 0.00 0.00 64 1015.5
20260906161420 72 35 1.0 1.0 0.00 0.00 0.00 67 1015.8
20260906160919 70 141 1.0 1.0 0.00 0.00 0.00 73 1015.6
20260906160413 70 157 3.0 3.0 0.00 0.00 0.00 69 1015.8
20260906155911 70 342 4.0 4.0 0.00 0.00 0.00 73 1016.0
20260906155405 69 54 0.0 0.0 0.00 0.00 0.00 74 1015.7
20260906154901 71 44 3.0 6.0 0.00 0.00 0.00 72 1015.7
20260906154355 70 137 1.0 2.0 0.00 0.00 0.00 72 1015.7
20260906153853 70 72 2.0 2.0 0.00 0.00 0.00 72 1015.9
20260906153347 69 130 0.0 0.0 0.00 0.00 0.00 74 1015.6
20260906152842 69 152 2.0 3.0 0.00 0.00 0.00 71 1015.8
20260906152337 69 74 2.0 3.0 0.00 0.00 0.00 73 1015.6
20260906151837 70 137 5.0 8.0 0.00 0.00 0.00 72 1015.6
20260906151332 69 135 0.0 1.0 0.00 0.00 0.00 76 1015.7
20260906150828 68 156 0.0 1.0 0.00 0.00 0.00 79 1015.8
20260906150323 70 106 0.0 1.0 0.00 0.00 0.00 77 1015.6
20260906145822 68 124 0.0 0.0 0.00 0.00 0.00 82 1015.6
20260906145321 67 126 4.0 4.0 0.00 0.00 0.00 78 1015.4
20260906144816 66 159 1.0 1.0 0.00 0.00 0.00 80 1015.6
20260906144311 66 77 2.0 4.0 0.00 0.00 0.00 82 1015.5
20260906143811 64 71 0.0 0.0 0.00 0.00 0.00 87 1015.7
20260906143308 64 71 0.0 1.0 0.00 0.00 0.00 87 1015.6
20260906142802 64 92 1.0 1.0 0.00 0.00 0.00 87 1015.7
20260906142258 64 112 0.0 0.0 0.00 0.00 0.00 87 1015.5
20260906141756 67 300 3.0 3.0 0.00 0.00 0.00 87 1015.5
20260906141251 66 108 1.0 2.0 0.00 0.00 0.00 83 1015.6
20260906140750 65 130 2.0 3.0 0.00 0.00 0.00 87 1015.6
20260906140245 62 176 0.0 1.0 0.00 0.00 0.00 92 1015.5
20260906135743 62 163 0.0 0.0 0.00 0.00 0.00 91 1015.6
20260906135238 62 146 0.0 0.0 0.00 0.00 0.00 91 1015.3
20260906134734 62 106 0.0 0.0 0.00 0.00 0.00 92 1015.5
20260906134229 63 120 0.0 1.0 0.00 0.00 0.00 91 1015.3
20260906133724 62 153 2.0 2.0 0.00 0.00 0.00 92 1015.4
20260906133220 63 66 3.0 6.0 0.00 0.00 0.00 92 1015.3
20260906132715 63 122 1.0 2.0 0.00 0.00 0.00 92 1015.2
20260906132211 62 104 0.0 1.0 0.00 0.00 0.00 92 1015.3
20260906131706 63 121 3.0 3.0 0.00 0.00 0.00 92 1015.5
20260906131201 63 136 0.0 0.0 0.00 0.00 0.00 93 1015.1
20260906130656 62 198 0.0 0.0 0.00 0.00 0.00 94 1015.4
20260906130151 62 162 1.0 1.0 0.00 0.00 0.00 96 1015.2
20260906125649 61 112 0.0 1.0 0.00 0.00 0.00 97 1015.0
20260906125148 61 67 0.0 0.0 0.00 0.00 0.00 97 1015.0
20260906124644 61 67 0.0 0.0 0.00 0.00 0.00 98 1015.1
20260906124139 61 67 0.0 0.0 0.00 0.00 0.00 99 1015.0
20260906123638 61 67 0.0 1.0 0.00 0.00 0.00 99 1015.0
20260906123133 60 67 0.0 0.0 0.00 0.00 0.00 99 1015.0
20260906122632 60 67 0.0 0.0 0.00 0.00 0.00 99 1015.0
20260906122128 60 67 0.0 0.0 0.00 0.00 0.00 99 1015.0
20260906121624 60 67 0.0 0.0 0.00 0.00 0.00 99 1014.9
20260906121120 59 67 0.0 0.0 0.00 0.00 0.00 99 1015.2
20260906120615 59 67 0.0 0.0 0.00 0.00 0.00 99 1015.0
20260906120112 59 67 0.0 0.0 0.00 0.00 0.00 99 1015.0
20260906115607 59 67 0.0 0.0 0.00 0.00 0.00 99 1015.0
20260906115102 59 67 0.0 0.0 0.00 0.00 0.00 99 1015.0
20260906114556 58 67 0.0 0.0 0.00 0.00 0.00 99 1014.6
20260906114051 58 67 0.0 1.0 0.00 0.00 0.00 99 1014.9
20260906113550 58 67 0.0 0.0 0.00 0.00 0.00 99 1014.9
20260906113045 58 67 0.0 0.0 0.00 0.00 0.00 99 1014.7
20260906112540 58 67 0.0 0.0 0.00 0.00 0.00 99 1014.6
20260906112037 58 67 0.0 0.0 0.00 0.00 0.00 99 1014.6
20260906111536 58 67 0.0 0.0 0.00 0.00 0.00 99 1014.7
20260906111032 58 67 0.0 0.0 0.00 0.00 0.00 99 1014.7
20260906110531 58 67 0.0 0.0 0.00 0.00 0.00 99 1014.3
20260906110031 57 67 0.0 0.0 0.00 0.00 0.00 99 1014.5
20260906105526 57 67 0.0 0.0 0.00 0.00 0.00 99 1014.3
20260906105022 57 67 0.0 0.0 0.00 0.00 0.00 99 1014.3
20260906104520 57 67 0.0 0.0 0.00 0.00 0.00 99 1014.3
20260906104015 57 67 1.0 1.0 0.00 0.00 0.00 99 1014.3
20260906103513 57 67 0.0 0.0 0.00 0.00 0.00 99 1014.2
20260906103009 57 67 0.0 1.0 0.00 0.00 0.00 99 1014.3
20260906102508 57 140 0.0 0.0 0.00 0.00 0.00 99 1014.1
20260906102003 57 140 0.0 0.0 0.00 0.00 0.00 99 1014.3
20260906101457 57 140 0.0 0.0 0.00 0.00 0.00 99 1014.2
20260906100953 57 183 0.0 0.0 0.00 0.00 0.00 99 1014.2
20260906100448 57 193 0.0 0.0 0.00 0.00 0.00 99 1014.0
20260906095942 57 189 0.0 0.0 0.00 0.00 0.00 99 1013.9
20260906095437 57 203 0.0 0.0 0.00 0.00 0.00 99 1014.0
20260906094932 57 176 0.0 0.0 0.00 0.00 0.00 99 1013.7
20260906094426 56 176 0.0 0.0 0.00 0.00 0.00 99 1013.7
20260906093922 56 176 0.0 0.0 0.00 0.00 0.00 99 1013.6
20260906093418 55 176 0.0 0.0 0.00 0.00 0.00 99 1013.8
20260906092913 55 176 0.0 0.0 0.00 0.00 0.00 99 1013.5
20260906092413 55 176 0.0 0.0 0.00 0.00 0.00 99 1013.5
20260906091908 55 176 0.0 0.0 0.00 0.00 0.00 99 1013.6
20260906091404 55 176 0.0 0.0 0.00 0.00 0.00 99 1013.6
20260906090901 55 176 0.0 0.0 0.00 0.00 0.00 99 1013.2
20260906090400 55 176 0.0 0.0 0.00 0.00 0.00 99 1013.3
20260906085854 55 183 0.0 0.0 0.00 0.00 0.00 99 1013.2
20260906085348 55 185 0.0 0.0 0.00 0.00 0.00 99 1013.1
20260906084843 55 185 0.0 0.0 0.00 0.00 0.00 99 1013.3
20260906084343 54 185 0.0 0.0 0.00 0.00 0.00 99 1013.2
20260906083837 54 185 0.0 0.0 0.00 0.00 0.00 99 1013.1
20260906083332 54 185 0.0 0.0 0.00 0.00 0.00 99 1013.0
20260906082826 54 185 0.0 0.0 0.00 0.00 0.00 99 1012.9
20260906082322 54 185 0.0 0.0 0.00 0.00 0.00 99 1012.8
20260906081818 54 185 0.0 0.0 0.00 0.00 0.00 99 1013.0
20260906081313 54 185 0.0 0.0 0.00 0.00 0.00 99 1012.7
20260906080809 54 185 0.0 0.0 0.00 0.00 0.00 99 1012.8
20260906080305 54 185 0.0 0.0 0.00 0.00 0.00 99 1012.7
20260906075805 54 185 0.0 0.0 0.00 0.00 0.00 99 1012.7
20260906075306 54 185 0.0 0.0 0.00 0.00 0.00 99 1012.5
20260906074800 54 185 0.0 0.0 0.00 0.00 0.00 99 1013.0
20260906074259 54 185 0.0 0.0 0.00 0.00 0.00 99 1013.1
20260906073759 54 185 0.0 0.0 0.00 0.00 0.00 99 1013.1
20260906073253 54 185 0.0 0.0 0.00 0.00 0.00 99 1012.8
20260906072749 54 185 0.0 0.0 0.00 0.00 0.00 99 1013.0
20260906072245 54 185 0.0 0.0 0.00 0.00 0.00 99 1012.9
20260906071741 54 185 0.0 0.0 0.00 0.00 0.00 99 1013.1
20260906071241 54 185 0.0 0.0 0.00 0.00 0.00 99 1012.8
20260906070737 54 185 0.0 0.0 0.00 0.00 0.00 99 1012.8
20260906070233 54 185 0.0 0.0 0.00 0.00 0.00 99 1012.6
20260906065732 55 185 0.0 0.0 0.00 0.00 0.00 99 1012.7
20260906065228 55 185 0.0 0.0 0.00 0.00 0.00 99 1012.5
20260906064723 55 185 0.0 0.0 0.00 0.00 0.00 99 1012.7
20260906064219 55 185 0.0 0.0 0.00 0.00 0.00 99 1012.8
20260906063714 55 185 0.0 0.0 0.00 0.00 0.00 99 1013.1
20260906063209 56 185 0.0 0.0 0.00 0.00 0.00 99 1012.9
20260906062705 56 185 0.0 0.0 0.00 0.00 0.00 99 1012.8
20260906062204 56 187 0.0 0.0 0.00 0.00 0.00 99 1012.8
20260906061700 56 187 0.0 0.0 0.00 0.00 0.00 99 1012.7
20260906061155 56 187 0.0 0.0 0.00 0.00 0.00 99 1012.7
20260906060651 56 187 0.0 0.0 0.00 0.00 0.00 99 1012.7
20260906060148 56 187 0.0 0.0 0.00 0.00 0.00 99 1012.8
20260906055644 56 187 0.0 0.0 0.00 0.00 0.00 99 1012.9
20260906055138 56 193 0.0 0.0 0.00 0.00 0.00 99 1013.0
20260906054634 56 202 0.0 0.0 0.00 0.00 0.00 99 1013.1
20260906054129 57 202 0.0 0.0 0.00 0.00 0.00 99 1012.8
20260906053625 57 202 0.0 0.0 0.00 0.00 0.00 99 1012.8
20260906053120 56 178 1.0 1.0 0.00 0.00 0.00 99 1013.0
20260906052616 57 175 0.0 0.0 0.00 0.00 0.00 99 1012.8
20260906052112 57 175 0.0 0.0 0.00 0.00 0.00 99 1013.0
20260906051608 57 175 0.0 0.0 0.00 0.00 0.00 99 1013.1
20260906051103 57 175 0.0 0.0 0.00 0.00 0.00 99 1013.3
20260906050558 58 175 0.0 0.0 0.00 0.00 0.00 99 1012.9
20260906050054 58 175 0.0 0.0 0.00 0.00 0.00 99 1012.9
20260906045551 58 175 0.0 0.0 0.00 0.00 0.00 99 1012.9
20260906045047 58 175 0.0 0.0 0.00 0.00 0.00 99 1012.9
20260906044543 58 187 0.0 0.0 0.00 0.00 0.00 99 1013.2
20260906044038 58 187 0.0 0.0 0.00 0.00 0.00 99 1012.8
20260906043533 58 187 0.0 0.0 0.00 0.00 0.00 99 1013.2
20260906043030 59 187 0.0 0.0 0.00 0.00 0.00 99 1013.2
20260906042528 59 187 0.0 0.0 0.00 0.00 0.00 99 1013.1
20260906042023 59 187 0.0 0.0 0.00 0.00 0.00 99 1012.9
20260906041519 58 187 0.0 0.0 0.00 0.00 0.00 99 1013.1
20260906041014 59 187 0.0 0.0 0.00 0.00 0.00 99 1013.2
20260906040509 59 187 0.0 0.0 0.00 0.00 0.00 99 1013.1
20260906040004 59 187 0.0 0.0 0.00 0.05 0.05 99 1013.0
20260906035459 59 187 0.0 0.0 0.00 0.05 0.05 99 1013.2
20260906034955 59 187 0.0 0.0 0.00 0.05 0.05 99 1013.0
20260906034454 59 187 0.0 0.0 0.00 0.05 0.05 99 1012.8
20260906033950 59 187 0.0 0.0 0.00 0.05 0.05 99 1013.0
20260906033444 59 187 0.0 0.0 0.00 0.05 0.05 99 1012.8
20260906032940 59 187 0.0 0.0 0.00 0.05 0.05 99 1012.7
20260906032436 59 187 0.0 0.0 0.00 0.05 0.05 99 1012.9
20260906031931 60 187 0.0 0.0 0.00 0.05 0.05 99 1012.7
20260906031426 60 187 0.0 0.0 0.00 0.05 0.05 99 1012.8
20260906030921 60 187 0.0 0.0 0.00 0.05 0.05 99 1012.9
20260906030416 60 187 0.0 0.0 0.00 0.05 0.05 99 1012.9
20260906025910 61 187 0.0 0.0 0.00 0.05 0.05 99 1012.8
20260906025405 61 187 0.0 0.0 0.00 0.05 0.05 99 1012.7
20260906024904 61 187 0.0 0.0 0.00 0.05 0.05 99 1012.8
20260906024403 61 187 0.0 0.0 0.00 0.05 0.05 99 1012.9
20260906023858 61 187 0.0 0.0 0.07 0.05 0.05 99 1013.1
20260906023354 61 187 0.0 0.0 0.07 0.05 0.05 99 1012.9
20260906022849 61 187 0.0 0.0 0.24 0.05 0.05 99 1012.8
20260906022344 61 187 0.0 0.0 0.17 0.04 0.04 99 1012.7
20260906021840 61 187 0.0 0.0 0.07 0.01 0.01 99 1012.7
20260906021339 61 187 1.0 1.0 0.07 0.01 0.01 99 1012.7
20260906020834 61 187 0.0 0.0 0.00 0.00 0.00 99 1012.8
20260906020333 61 188 0.0 0.0 0.00 0.00 0.00 99 1012.8
20260906015828 61 188 0.0 0.0 0.00 0.00 0.00 99 1012.6
20260906015327 61 188 0.0 0.0 0.00 0.00 0.00 99 1012.6
20260906014827 61 188 0.0 0.0 0.00 0.00 0.00 99 1012.6
20260906014322 61 188 0.0 0.0 0.00 0.00 0.00 99 1012.6
20260906013818 60 188 0.0 0.0 0.00 0.00 0.00 99 1012.3
20260906013313 60 188 0.0 0.0 0.00 0.00 0.00 99 1012.6
20260906012809 60 188 0.0 0.0 0.00 0.00 0.00 99 1012.5
20260906012309 60 188 0.0 0.0 0.00 0.00 0.00 99 1012.2
20260906011804 60 188 0.0 0.0 0.00 0.00 0.00 99 1012.6
20260906011258 60 188 0.0 0.0 0.00 0.00 0.00 99 1012.6
20260906010754 60 188 0.0 0.0 0.00 0.00 0.00 99 1012.6
20260906010250 60 188 0.0 0.0 0.00 0.00 0.00 99 1012.5
20260906005745 60 188 0.0 0.0 0.00 0.00 0.00 99 1012.4
20260906005244 60 188 0.0 0.0 0.00 0.00 0.00 99 1012.3
20260906004743 60 187 0.0 0.0 0.00 0.00 0.00 99 1012.2
20260906004238 61 188 0.0 0.0 0.00 0.00 0.00 99 1012.3
20260906003733 61 187 0.0 0.0 0.00 0.00 0.00 99 1012.3
20260906003228 61 188 0.0 0.0 0.00 0.00 0.00 99 1012.2
20260906002723 61 188 0.0 0.0 0.00 0.00 0.00 99 1012.4
20260906002218 62 188 0.0 0.0 0.00 0.00 0.00 98 1012.3
20260906001714 62 188 0.0 0.0 0.00 0.00 0.00 97 1011.8
20260906001214 62 188 0.0 0.0 0.00 0.00 0.00 97 1012.2
20260906000709 62 188 0.0 0.0 0.00 0.00 0.00 97 1012.0
20260906000204 62 188 0.0 0.0 0.00 0.00 0.00 97 1012.1
20260905235703 62 188 0.0 0.0 0.00 0.00 0.00 96 1012.2
20260905235158 62 188 0.0 0.0 0.00 0.00 0.00 95 1012.0
20260905234654 63 188 0.0 0.0 0.00 0.00 0.00 95 1011.9
20260905234149 63 188 0.0 0.0 0.00 0.00 0.00 94 1012.0
20260905233644 64 188 0.0 0.0 0.00 0.00 0.00 94 1011.9
20260905233143 64 188 0.0 0.0 0.00 0.00 0.00 93 1012.1
20260905232638 65 188 0.0 0.0 0.00 0.00 0.00 91 1011.9
20260905232134 66 189 0.0 0.0 0.00 0.00 0.00 91 1012.0
20260905231629 66 189 0.0 0.0 0.00 0.00 0.00 90 1012.0
20260905231126 66 189 0.0 0.0 0.00 0.00 0.00 88 1011.9
20260905230621 67 189 0.0 0.0 0.00 0.00 0.00 86 1011.8
20260905230118 68 201 0.0 0.0 0.00 0.00 0.00 83 1011.9
20260905225613 68 205 1.0 2.0 0.00 0.00 0.00 83 1011.9